Theta_e
315 315 317 318 319 318 317 315 316 316 315 314 313 311 309 309 312 317 320 319 317 315 313 317 318 318 316 315 313 310 307 305 304 303 302 301 300 300 299 297 296 295 295 295
318 316 315 318 317 316 316 316 315 315 315 311 310 310 309 309 310 311 313 316 317 316 313 314 316 316 313 312 309 308 306 304 303 302 300 300 298 296 295 295 297 298 297 295
315 313 313 314 313 315 315 315 315 315 312 311 311 309 308 308 309 309 308 309 309 312 313 314 314 313 309 308 307 305 304 302 300 298 296 296 296 297 299 299 298 297 296 294
312 310 314 314 313 313 313 311 309 311 310 310 310 309 308 307 308 308 306 304 302 302 303 306 308 307 304 303 302 301 298 297 295 295 295 298 299 299 298 297 296 294 293 293
313 313 313 315 311 311 312 313 311 310 310 311 310 310 309 303 302 301 299 298 297 297 297 299 299 299 299 297 296 295 295 295 296 298 299 298 297 297 296 295 293 293 293 293
309 313 314 314 312 310 310 312 311 311 311 311 311 312 311 302 299 298 297 296 296 296 295 296 295 295 295 295 295 295 296 298 298 299 299 297 296 294 293 293 292 292 292 292
305 309 311 309 311 310 311 310 310 311 310 310 311 308 302 299 297 296 296 295 295 295 294 295 296 296 296 298 298 298 299 300 299 295 294 293 293 293 292 292 292 292 291 291
306 305 315 310 311 310 309 310 310 309 310 306 303 301 299 298 297 296 295 295 295 295 294 295 296 297 296 296 296 295 294 293 293 293 292 291 291 291 291 291 291 290 290 291
313 312 310 312 311 310 309 311 311 311 308 303 302 300 298 297 296 295 294 294 294 294 294 294 294 294 293 293 293 293 292 292 291 291 291 291 291 290 290 290 290 290 290 290
314 315 315 313 309 308 309 309 309 308 303 302 300 298 297 296 295 294 294 294 294 294 293 293 293 292 292 292 292 292 291 291 291 291 291 290 290 289 289 289 289 289 288 288
314 314 313 310 305 304 303 302 301 300 301 299 298 297 296 295 294 294 294 294 294 293 292 291 291 290 290 291 291 291 291 290 290 290 289 289 289 289 289 290 289 289 288 288
312 313 312 310 304 303 302 301 299 299 297 297 296 295 294 294 294 294 293 292 291 290 290 289 290 290 289 289 289 288 287 286 286 285 284 284 285 285 285 286 287 287 288 288
312 311 306 303 301 300 300 298 297 296 295 295 295 295 294 292 292 291 291 290 289 288 289 288 287 286 285 285 285 284 283 283 283 283 283 283 283 283 283 283 284 285 286 287
304 304 303 302 300 298 297 296 295 294 294 294 293 292 291 290 290 289 288 288 288 287 286 285 284 282 282 283 283 282 282 281 281 280 281 281 281 281 281 281 282 283 283 285
303 303 302 298 296 296 295 295 294 293 292 292 292 290 290 289 287 287 286 287 287 286 284 282 281 281 281 280 279 278 278 278 278 278 279 279 280 280 279 280 281 281 282 283
299 298 298 297 296 295 294 293 292 291 290 291 290 290 289 286 285 285 286 286 285 282 280 280 280 279 278 277 276 276 276 277 277 277 278 278 278 278 278 279 278 281 282 282
298 297 296 296 295 294 294 293 292 291 290 289 289 287 285 285 285 284 283 283 281 279 279 279 277 276 275 275 275 275 275 275 274 275 275 274 274 275 276 278 276 275 275 278
299 298 298 296 295 295 294 291 289 289 288 287 286 285 285 285 284 282 281 280 279 278 278 276 275 274 273 273 274 274 273 273 272 271 271 271 271 272 273 272 273 273 273 274
299 298 297 296 295 293 291 289 288 287 286 285 285 284 283 284 282 280 280 279 277 277 277 275 274 273 272 272 271 271 271 270 270 269 269 269 269 269 270 269 269 270 271 272
298 297 295 293 291 290 288 287 286 285 284 284 282 282 281 281 281 280 279 276 275 275 276 274 273 272 271 270 270 269 269 268 267 267 267 267 267 267 267 267 267 267 268 269
294 292 291 289 287 287 287 286 284 283 282 283 282 281 280 280 280 279 278 277 275 274 274 273 272 271 270 269 268 268 267 266 266 265 265 265 265 265 265 265 265 265 265 266
291 290 288 287 286 285 285 284 282 281 281 281 280 280 280 278 278 277 276 276 274 273 273 272 271 270 269 268 268 267 266 266 265 265 264 263 263 263 263 263 263 263 264 264
290 289 288 287 286 284 283 282 281 280 280 280 280 280 279 278 277 276 276 274 274 273 272 271 270 269 269 268 267 266 266 265 264 264 263 263 262 262 262 262 262 262 262 262
288 288 287 285 284 282 282 281 280 280 280 279 279 279 278 277 276 275 274 273 273 272 271 270 269 268 268 267 266 266 265 264 264 263 263 262 262 262 261 261 261 261 261 261
288 286 285 284 284 283 282 281 280 279 278 278 278 278 278 277 276 274 273 272 271 271 270 269 268 267 267 266 266 265 265 264 263 263 262 261 261 261 261 261 260 260 260 260
286 285 284 282 282 282 281 280 280 279 277 275 275 276 276 276 274 273 272 271 270 269 269 268 267 267 266 265 265 265 264 263 263 262 261 260 260 260 260 260 260 260 260 260
281 281 280 279 278 279 279 278 278 277 276 275 275 275 275 274 273 271 270 269 268 268 268 267 266 266 265 264 264 264 263 263 262 261 261 260 260 260 260 260 259 259 260 260
Wind_Speed
4 4 3 4 4 7 6 6 6 8 7 5 5 5 6 6 4 4 4 7 7 6 6 8 8 12 16 21 24 27 27 25 25 24 21 18 18 12 8 11 9 5 3 11
2 3 4 4 6 6 6 3 6 5 5 3 4 4 7 8 7 7 6 6 1 6 6 12 15 16 18 21 23 25 25 23 22 19 19 17 16 17 14 12 6 7 13 17
4 2 2 5 8 8 6 5 6 6 8 3 3 6 5 6 7 7 7 8 8 7 6 5 8 14 19 22 22 22 23 22 23 22 23 20 16 11 7 8 13 15 18 17
3 3 3 7 3 4 5 2 4 5 6 4 6 5 6 6 5 7 7 8 8 10 14 15 16 19 23 24 25 26 25 26 25 25 22 13 7 11 10 12 13 14 18 19
5 4 5 3 3 7 6 2 3 7 8 7 6 5 7 9 9 8 7 9 12 15 18 23 24 26 30 29 29 29 25 25 21 12 7 6 5 8 11 13 15 15 17 15
3 5 7 8 4 5 6 2 5 5 7 9 3 3 3 5 7 8 13 13 15 18 22 26 23 27 33 29 31 27 20 12 6 10 11 6 6 8 12 13 14 15 19 18
3 3 7 7 5 5 6 7 8 7 7 6 4 2 7 8 9 13 14 17 21 24 24 24 26 29 29 25 19 11 5 5 7 4 4 6 8 11 13 15 17 19 21 21
3 3 6 5 4 8 6 3 7 6 5 6 10 10 10 9 8 11 13 17 19 21 21 18 18 21 18 16 8 7 5 4 4 5 8 10 11 13 15 17 20 22 24 25
8 6 3 3 4 1 4 9 5 7 6 13 13 8 10 9 8 10 13 17 18 20 21 21 18 17 17 12 8 7 6 7 9 9 11 12 14 17 20 20 23 25 26 29
4 1 1 3 3 3 4 5 7 8 14 11 15 12 12 10 8 11 14 16 18 19 17 18 16 16 12 8 7 8 9 11 14 16 18 20 22 21 23 24 27 29 26 25
3 2 3 5 3 5 9 10 14 11 9 14 16 12 12 10 9 13 15 15 17 17 17 15 15 16 13 13 10 11 11 14 16 18 20 24 25 24 25 28 28 29 28 29
5 12 5 5 7 7 10 9 10 16 12 10 15 14 16 9 14 16 15 17 18 19 19 15 16 17 17 17 16 16 18 20 22 25 27 26 27 30 25 28 32 32 33 32
6 12 6 11 7 5 11 9 11 13 14 16 16 20 20 16 16 21 20 20 18 16 17 17 16 18 17 17 17 19 19 20 23 24 23 22 22 23 28 35 29 30 30 32
15 17 9 4 6 10 13 16 19 18 18 19 20 21 21 19 21 19 17 15 14 14 14 13 15 18 17 16 18 19 19 20 21 23 23 21 23 24 24 26 29 34 32 32
5 7 11 17 14 13 18 18 15 13 13 15 18 20 21 17 15 15 15 15 16 17 14 13 15 17 15 17 19 20 21 21 22 22 21 22 22 22 25 28 28 29 32 32
13 16 17 17 16 15 15 13 16 11 9 15 17 17 19 22 20 18 14 12 15 14 13 14 14 13 16 18 19 19 20 20 21 23 22 21 21 23 24 24 30 28 27 30
19 11 13 14 14 15 14 12 12 12 15 16 17 21 22 20 18 17 18 17 17 14 12 12 11 13 15 16 16 18 19 19 19 18 18 20 20 21 24 22 23 25 30 34
10 11 8 16 17 16 14 14 17 17 15 17 22 22 19 16 14 16 16 14 12 14 12 10 12 12 13 15 15 14 17 15 18 19 18 19 21 20 21 22 23 24 27 30
16 16 16 18 20 18 17 18 17 18 21 24 22 18 17 15 17 17 14 12 12 10 7 7 10 12 14 15 14 15 15 15 19 19 19 20 20 22 19 21 22 23 24 24
16 20 22 21 21 24 19 18 21 19 19 21 22 19 17 15 16 14 10 13 8 5 2 6 10 11 13 15 13 15 13 13 17 18 18 20 20 20 20 21 22 22 22 23
15 20 20 21 19 18 20 23 23 18 17 19 19 18 16 15 13 10 9 7 4 5 3 5 9 10 12 13 13 13 13 14 14 17 17 20 21 20 23 22 23 23 22 23
17 17 20 21 20 18 18 20 23 22 20 19 17 17 17 14 12 10 7 5 2 3 4 6 6 8 10 11 11 11 12 13 14 14 17 20 21 20 24 23 23 23 23 23
18 20 21 20 18 18 19 21 21 21 20 18 16 14 12 11 9 9 7 1 1 3 4 5 6 7 8 9 10 10 11 14 15 12 15 19 21 20 21 22 22 23 22 24
18 17 17 19 22 20 16 15 16 17 17 14 12 10 12 12 7 5 4 2 1 3 4 5 5 5 8 9 9 10 11 13 16 14 15 19 22 21 20 21 22 23 23 24
16 17 18 18 15 12 15 16 18 16 14 11 9 8 7 6 3 7 3 1 3 4 5 4 5 7 9 10 10 10 10 13 15 15 16 20 22 23 21 20 20 23 24 24
17 15 14 13 12 14 14 15 13 14 13 10 7 5 7 5 5 5 1 2 4 5 5 5 6 8 10 11 11 10 10 12 14 14 17 21 23 22 21 21 21 23 24 25
18 18 17 17 16 15 13 12 12 10 7 5 5 5 9 8 5 2 2 4 6 6 6 6 7 8 10 11 12 9 10 13 14 15 18 22 23 22 21 21 21 23 22 24
Wind_Direction
219 204 212 183 185 173 187 204 165 249 210 269 291 261 284 220 64 91 164 150 185 200 215 223 186 183 186 189 190 184 176 173 171 173 176 176 160 158 151 135 141 111 10 290
124 23 359 230 233 191 217 213 256 242 249 221 293 9 53 76 89 78 67 60 61 232 216 199 188 171 172 175 175 177 168 161 163 156 145 145 131 117 107 95 77 262 262 280
216 61 359 324 228 221 218 204 183 188 218 151 69 58 49 74 80 74 51 35 28 33 54 96 151 168 156 159 161 152 142 142 138 134 121 110 100 83 26 295 260 271 278 294
172 54 294 249 290 230 182 267 248 121 123 122 127 110 64 32 98 74 52 38 35 38 61 83 110 120 121 123 124 121 114 118 119 116 101 86 13 325 290 277 281 286 295 296
141 187 294 297 202 161 164 252 318 133 129 136 145 87 39 32 38 59 58 53 56 67 81 92 99 112 113 104 103 98 93 100 100 81 39 354 322 282 279 283 286 292 295 298
142 157 208 233 238 158 118 266 205 152 159 163 124 99 242 57 53 63 65 66 72 76 83 89 91 104 99 93 96 97 97 89 49 348 329 302 271 274 293 294 297 292 287 284
136 197 286 241 212 143 154 232 164 171 162 150 155 209 124 95 73 72 77 78 83 82 84 95 105 105 99 99 96 97 68 331 302 313 311 301 300 302 301 297 294 290 289 291
87 79 275 179 123 169 206 80 131 141 133 103 113 108 104 100 92 86 87 92 92 89 81 86 97 100 94 90 88 60 55 49 23 338 317 309 306 303 298 295 293 293 295 294
178 207 231 261 250 215 154 139 147 131 126 135 127 119 116 113 107 94 90 86 90 89 83 80 78 80 80 75 65 51 21 355 341 333 326 318 309 304 300 299 298 297 295 296
112 240 345 347 33 60 84 108 107 121 136 139 128 126 122 118 109 95 93 96 98 94 86 80 76 70 62 48 24 5 357 351 342 335 326 317 315 308 305 305 305 298 292 288
92 38 67 6 52 105 92 93 93 80 112 128 127 128 125 114 108 104 101 100 102 97 88 81 81 70 56 44 32 22 12 4 359 353 348 340 333 328 320 311 307 300 293 290
207 187 160 162 150 132 117 114 114 118 109 113 125 125 121 112 113 112 107 106 97 96 94 84 75 63 51 42 34 25 12 1 354 348 343 340 334 325 320 314 310 305 302 299
175 140 96 110 99 86 115 113 109 113 119 122 119 121 119 118 113 113 108 108 103 98 94 83 68 52 36 26 15 11 6 357 351 349 347 339 333 327 320 319 313 308 303 301
117 111 81 140 150 115 113 112 108 105 111 117 119 116 113 107 108 105 102 110 110 97 81 69 53 36 23 15 8 5 360 355 350 344 337 332 327 322 320 315 312 313 313 307
36 66 114 116 114 116 121 123 114 113 117 110 116 117 116 110 103 106 112 109 99 90 76 56 42 29 17 6 3 360 358 355 350 346 341 338 333 332 329 321 311 304 307 306
104 106 117 120 127 130 128 125 120 121 116 118 116 113 116 117 113 108 108 116 100 84 63 48 42 23 5 1 3 4 2 1 357 352 345 343 341 330 324 333 340 315 305 302
111 112 119 125 136 138 136 133 127 126 122 119 120 125 122 116 107 103 106 105 95 78 58 49 34 12 11 6 5 6 3 0 355 355 347 341 338 337 336 330 339 347 355 354
97 121 128 140 142 139 131 123 122 124 123 128 132 132 128 123 115 118 117 110 88 67 57 43 20 14 13 9 7 4 353 359 355 355 349 347 348 341 340 348 345 348 348 352
123 126 131 132 134 127 124 123 121 122 133 134 129 121 122 121 126 125 120 94 70 66 50 18 13 17 14 10 4 1 1 359 358 357 355 352 351 351 347 347 344 343 345 348
114 116 117 115 120 124 118 121 125 125 136 137 131 124 116 121 131 126 113 91 75 64 59 11 10 17 10 7 3 2 2 357 358 358 356 354 351 348 344 345 345 344 344 345
113 115 115 112 106 110 124 132 130 128 140 143 135 131 124 126 136 128 125 115 69 41 39 1 4 8 5 4 4 3 6 4 2 1 1 355 351 349 344 342 342 344 341 341
121 117 114 115 115 116 121 129 136 137 138 135 132 132 131 130 132 117 103 113 86 13 356 355 356 356 355 357 0 360 3 2 358 356 360 357 352 345 340 342 339 340 339 338
115 118 122 126 129 125 130 139 141 139 137 139 142 146 148 157 155 146 149 121 17 349 330 336 340 340 343 346 349 353 353 357 356 347 350 351 350 344 339 340 338 339 337 334
115 118 119 124 128 126 128 141 138 141 137 137 144 154 157 153 139 139 135 147 309 314 307 317 329 331 338 340 339 344 349 351 353 342 338 341 345 343 340 339 337 339 337 336
117 120 124 129 131 130 133 140 137 138 135 135 145 163 179 181 218 175 182 301 322 303 305 301 317 331 339 336 332 332 338 344 348 342 336 340 342 341 339 337 335 337 335 334
121 120 109 105 108 126 128 138 132 152 153 138 134 151 181 187 168 169 197 327 325 307 301 305 318 329 336 335 324 315 323 333 340 338 337 341 341 340 337 335 335 336 335 335
91 98 99 86 89 108 117 124 136 142 148 141 149 177 187 184 182 198 308 338 337 321 309 303 319 327 332 332 326 309 315 323 328 327 331 337 339 338 335 332 333 334 335 337